Year,Month,Day,Hour,Minute,Value (Times are PST for temperature in C)
2017,10,17,00,00,11.90
2017,10,17,00,01,11.90
2017,10,17,00,02,11.90
2017,10,17,00,03,11.90
2017,10,17,00,04,11.90
2017,10,17,00,05,11.90
2017,10,17,00,06,11.90
2017,10,17,00,07,12.00
2017,10,17,00,08,12.00
2017,10,17,00,09,12.00
2017,10,17,00,10,12.00
2017,10,17,00,11,12.00
2017,10,17,00,12,12.00
2017,10,17,00,13,12.00
2017,10,17,00,14,12.00
2017,10,17,00,15,12.00
2017,10,17,00,16,12.00
2017,10,17,00,17,12.00
2017,10,17,00,18,12.10
2017,10,17,00,19,12.10
2017,10,17,00,20,12.10
2017,10,17,00,21,12.00
2017,10,17,00,22,12.10
2017,10,17,00,23,12.00
2017,10,17,00,24,12.00
2017,10,17,00,25,12.10
2017,10,17,00,26,12.10
2017,10,17,00,27,12.10
2017,10,17,00,28,12.10
2017,10,17,00,29,12.10
2017,10,17,00,30,12.10
2017,10,17,00,31,12.00
2017,10,17,00,32,12.00
2017,10,17,00,33,12.00
2017,10,17,00,34,12.00
2017,10,17,00,35,12.00
2017,10,17,00,36,12.00
2017,10,17,00,37,12.00
2017,10,17,00,38,12.00
2017,10,17,00,39,12.00
2017,10,17,00,40,12.00
2017,10,17,00,41,12.00
2017,10,17,00,42,12.00
2017,10,17,00,43,12.00
2017,10,17,00,44,12.00
2017,10,17,00,45,12.00
2017,10,17,00,46,12.00
2017,10,17,00,47,12.00
2017,10,17,00,48,12.00
2017,10,17,00,49,12.00
2017,10,17,00,50,12.00
2017,10,17,00,51,12.00
2017,10,17,00,52,12.00
2017,10,17,00,53,12.00
2017,10,17,00,54,12.00
2017,10,17,00,55,12.00
2017,10,17,00,56,12.00
2017,10,17,00,57,12.00
2017,10,17,00,58,12.00
2017,10,17,00,59,12.00
2017,10,17,01,00,12.00
2017,10,17,01,01,12.00
2017,10,17,01,02,12.00
2017,10,17,01,03,12.00
2017,10,17,01,04,12.00
2017,10,17,01,05,12.00
2017,10,17,01,06,12.00
2017,10,17,01,07,12.00
2017,10,17,01,08,12.00
2017,10,17,01,09,12.00
2017,10,17,01,10,12.00
2017,10,17,01,11,12.00
2017,10,17,01,12,12.00
2017,10,17,01,13,12.00
2017,10,17,01,14,12.00
2017,10,17,01,15,12.00
2017,10,17,01,16,12.00
2017,10,17,01,17,12.00
2017,10,17,01,18,12.00
2017,10,17,01,19,12.10
2017,10,17,01,20,12.10
2017,10,17,01,21,12.10
2017,10,17,01,22,12.10
2017,10,17,01,23,12.10
2017,10,17,01,24,12.10
2017,10,17,01,25,12.10
2017,10,17,01,26,12.10
2017,10,17,01,27,12.10
2017,10,17,01,28,12.10
2017,10,17,01,29,12.10
2017,10,17,01,30,12.10
2017,10,17,01,31,12.10
2017,10,17,01,32,12.10
2017,10,17,01,33,12.10
2017,10,17,01,34,12.10
2017,10,17,01,35,12.10
2017,10,17,01,36,12.10
2017,10,17,01,37,12.10
2017,10,17,01,38,12.10
2017,10,17,01,39,12.00
2017,10,17,01,40,12.00
2017,10,17,01,41,12.00
2017,10,17,01,42,12.00
2017,10,17,01,43,12.00
2017,10,17,01,44,11.90
2017,10,17,01,45,11.90
2017,10,17,01,46,11.90
2017,10,17,01,47,11.90
2017,10,17,01,48,11.90
2017,10,17,01,49,11.90
2017,10,17,01,50,11.90
2017,10,17,01,51,11.90
2017,10,17,01,52,11.90
2017,10,17,01,53,11.90
2017,10,17,01,54,11.90
2017,10,17,01,55,11.90
2017,10,17,01,56,11.90
2017,10,17,01,57,11.90
2017,10,17,01,58,11.90
2017,10,17,01,59,11.90
2017,10,17,02,00,11.90
2017,10,17,02,01,11.90
2017,10,17,02,02,11.90
2017,10,17,02,03,11.90
2017,10,17,02,04,11.90
2017,10,17,02,05,11.90
2017,10,17,02,06,11.90
2017,10,17,02,07,11.90
2017,10,17,02,08,11.90
2017,10,17,02,09,11.90
2017,10,17,02,10,11.90
2017,10,17,02,11,11.90
2017,10,17,02,12,12.00
2017,10,17,02,13,12.00
2017,10,17,02,14,12.00
2017,10,17,02,15,12.00
2017,10,17,02,16,12.00
2017,10,17,02,17,12.00
2017,10,17,02,18,12.00
2017,10,17,02,19,12.10
2017,10,17,02,20,12.10
2017,10,17,02,21,12.10
2017,10,17,02,22,12.10
2017,10,17,02,23,12.10
2017,10,17,02,24,12.10
2017,10,17,02,25,12.10
2017,10,17,02,26,12.10
2017,10,17,02,27,12.10
2017,10,17,02,28,12.10
2017,10,17,02,29,12.10
2017,10,17,02,30,12.10
2017,10,17,02,31,12.10
2017,10,17,02,32,12.10
2017,10,17,02,33,12.10
2017,10,17,02,34,12.10
2017,10,17,02,35,12.10
2017,10,17,02,36,12.10
2017,10,17,02,37,12.10
2017,10,17,02,38,12.10
2017,10,17,02,39,12.10
2017,10,17,02,40,12.10
2017,10,17,02,41,12.10
2017,10,17,02,42,12.10
2017,10,17,02,43,12.10
2017,10,17,02,44,12.20
2017,10,17,02,45,12.20
2017,10,17,02,46,12.20
2017,10,17,02,47,12.20
2017,10,17,02,48,12.20
2017,10,17,02,49,12.20
2017,10,17,02,50,12.20
2017,10,17,02,51,12.20
2017,10,17,02,52,12.20
2017,10,17,02,53,12.20
2017,10,17,02,54,12.20
2017,10,17,02,55,12.20
2017,10,17,02,56,12.20
2017,10,17,02,57,12.20
2017,10,17,02,58,12.20
2017,10,17,02,59,12.30
2017,10,17,03,00,12.30
2017,10,17,03,01,12.30
2017,10,17,03,02,12.30
2017,10,17,03,03,12.30
2017,10,17,03,04,12.20
2017,10,17,03,05,12.20
2017,10,17,03,06,12.20
2017,10,17,03,07,12.20
2017,10,17,03,08,12.20
2017,10,17,03,09,12.20
2017,10,17,03,10,12.20
2017,10,17,03,11,12.20
2017,10,17,03,12,12.20
2017,10,17,03,13,12.10
2017,10,17,03,14,12.10
2017,10,17,03,15,12.10
2017,10,17,03,16,12.10
2017,10,17,03,17,12.10
2017,10,17,03,18,12.10
2017,10,17,03,19,12.10
2017,10,17,03,20,12.00
2017,10,17,03,21,12.00
2017,10,17,03,22,12.00
2017,10,17,03,23,12.00
2017,10,17,03,24,12.00
2017,10,17,03,25,11.90
2017,10,17,03,26,11.90
2017,10,17,03,27,11.90
2017,10,17,03,28,11.90
2017,10,17,03,29,11.90
2017,10,17,03,30,11.90
2017,10,17,03,31,11.80
2017,10,17,03,32,11.80
2017,10,17,03,33,11.80
2017,10,17,03,34,11.80
2017,10,17,03,35,11.80
2017,10,17,03,36,11.80
2017,10,17,03,37,11.80
2017,10,17,03,38,11.80
2017,10,17,03,39,11.80
2017,10,17,03,40,11.80
2017,10,17,03,41,11.80
2017,10,17,03,42,11.80
2017,10,17,03,43,11.80
2017,10,17,03,44,11.80
2017,10,17,03,45,11.80
2017,10,17,03,46,11.70
2017,10,17,03,47,11.70
2017,10,17,03,48,11.70
2017,10,17,03,49,11.70
2017,10,17,03,50,11.70
2017,10,17,03,51,11.70
2017,10,17,03,52,11.70
2017,10,17,03,53,11.70
2017,10,17,03,54,11.70
2017,10,17,03,55,11.70
2017,10,17,03,56,11.70
2017,10,17,03,57,11.70
2017,10,17,03,58,11.70
2017,10,17,03,59,11.70
2017,10,17,04,00,11.70
2017,10,17,04,01,11.70
2017,10,17,04,02,11.70
2017,10,17,04,03,11.70
2017,10,17,04,04,11.70
2017,10,17,04,05,11.70
2017,10,17,04,06,11.70
2017,10,17,04,07,11.70
2017,10,17,04,08,11.70
2017,10,17,04,09,11.70
2017,10,17,04,10,11.70
2017,10,17,04,11,11.70
2017,10,17,04,12,11.70
2017,10,17,04,13,11.70
2017,10,17,04,14,11.60
2017,10,17,04,15,11.60
2017,10,17,04,16,11.50
2017,10,17,04,17,11.40
2017,10,17,04,18,11.40
2017,10,17,04,19,11.40
2017,10,17,04,20,11.40
2017,10,17,04,21,11.40
2017,10,17,04,22,11.40
2017,10,17,04,23,11.50
2017,10,17,04,24,11.60
2017,10,17,04,25,11.60
2017,10,17,04,26,11.60
2017,10,17,04,27,11.50
2017,10,17,04,28,11.40
2017,10,17,04,29,11.40
2017,10,17,04,30,11.40
2017,10,17,04,31,11.40
2017,10,17,04,32,11.30
2017,10,17,04,33,11.30
2017,10,17,04,34,11.30
2017,10,17,04,35,11.20
2017,10,17,04,36,11.20
2017,10,17,04,37,11.10
2017,10,17,04,38,11.10
2017,10,17,04,39,11.00
2017,10,17,04,40,10.90
2017,10,17,04,41,10.80
2017,10,17,04,42,10.70
2017,10,17,04,43,10.70
2017,10,17,04,44,10.70
2017,10,17,04,45,10.70
2017,10,17,04,46,10.70
2017,10,17,04,47,10.70
2017,10,17,04,48,10.70
2017,10,17,04,49,10.60
2017,10,17,04,50,10.60
2017,10,17,04,51,10.60
2017,10,17,04,52,10.60
2017,10,17,04,53,10.60
2017,10,17,04,54,10.60
2017,10,17,04,55,10.60
2017,10,17,04,56,10.60
2017,10,17,04,57,10.60
2017,10,17,04,58,10.60
2017,10,17,04,59,10.50
2017,10,17,05,00,10.50
2017,10,17,05,01,10.50
2017,10,17,05,02,10.50
2017,10,17,05,03,10.50
2017,10,17,05,04,10.50
2017,10,17,05,05,10.60
2017,10,17,05,06,10.50
2017,10,17,05,07,10.50
2017,10,17,05,08,10.40
2017,10,17,05,09,10.40
2017,10,17,05,10,10.40
2017,10,17,05,11,10.40
2017,10,17,05,12,10.50
2017,10,17,05,13,10.40
2017,10,17,05,14,10.40
2017,10,17,05,15,10.40
2017,10,17,05,16,10.40
2017,10,17,05,17,10.30
2017,10,17,05,18,10.30
2017,10,17,05,19,10.50
2017,10,17,05,20,10.50
2017,10,17,05,21,10.50
2017,10,17,05,22,10.50
2017,10,17,05,23,10.50
2017,10,17,05,24,10.40
2017,10,17,05,25,10.40
2017,10,17,05,26,10.40
2017,10,17,05,27,10.40
2017,10,17,05,28,10.30
2017,10,17,05,29,10.30
2017,10,17,05,30,10.20
2017,10,17,05,31,10.20
2017,10,17,05,32,10.20
2017,10,17,05,33,10.20
2017,10,17,05,34,10.10
2017,10,17,05,35,10.10
2017,10,17,05,36,10.10
2017,10,17,05,37,10.10
2017,10,17,05,38,10.10
2017,10,17,05,39,10.10
2017,10,17,05,40,10.00
2017,10,17,05,41,10.00
2017,10,17,05,42,10.00
2017,10,17,05,43,10.00
2017,10,17,05,44,10.00
2017,10,17,05,45,9.90
2017,10,17,05,46,9.90
2017,10,17,05,47,9.90
2017,10,17,05,48,9.80
2017,10,17,05,49,9.80
2017,10,17,05,50,9.80
2017,10,17,05,51,9.80
2017,10,17,05,52,9.80
2017,10,17,05,53,9.80
2017,10,17,05,54,9.80
2017,10,17,05,55,9.80
2017,10,17,05,56,9.70
2017,10,17,05,57,9.70
2017,10,17,05,58,9.70
2017,10,17,05,59,9.80
2017,10,17,06,00,9.80
2017,10,17,06,01,9.80
2017,10,17,06,02,9.80
2017,10,17,06,03,9.80
2017,10,17,06,04,9.80
2017,10,17,06,05,9.80
2017,10,17,06,06,9.80
2017,10,17,06,07,9.70
2017,10,17,06,08,9.60
2017,10,17,06,09,9.60
2017,10,17,06,10,9.60
2017,10,17,06,11,9.60
2017,10,17,06,12,9.60
2017,10,17,06,13,9.60
2017,10,17,06,14,9.60
2017,10,17,06,15,9.60
2017,10,17,06,16,9.70
2017,10,17,06,17,9.70
2017,10,17,06,18,9.70
2017,10,17,06,19,9.70
2017,10,17,06,20,9.70
2017,10,17,06,21,9.70
2017,10,17,06,22,9.70
2017,10,17,06,23,9.70
2017,10,17,06,24,9.70
2017,10,17,06,25,9.70
2017,10,17,06,26,9.70
2017,10,17,06,27,9.70
2017,10,17,06,28,9.70
2017,10,17,06,29,9.60
2017,10,17,06,30,9.60
2017,10,17,06,31,9.70
2017,10,17,06,32,9.80
2017,10,17,06,33,10.00
2017,10,17,06,34,10.10
2017,10,17,06,35,10.20
2017,10,17,06,36,10.30
2017,10,17,06,37,10.30
2017,10,17,06,38,10.30
2017,10,17,06,39,10.30
2017,10,17,06,40,10.30
2017,10,17,06,41,10.30
2017,10,17,06,42,10.30
2017,10,17,06,43,10.30
2017,10,17,06,44,10.40
2017,10,17,06,45,10.40
2017,10,17,06,46,10.40
2017,10,17,06,47,10.40
2017,10,17,06,48,10.50
2017,10,17,06,49,10.50
2017,10,17,06,50,10.50
2017,10,17,06,51,10.40
2017,10,17,06,52,10.40
2017,10,17,06,53,10.40
2017,10,17,06,54,10.30
2017,10,17,06,55,10.30
2017,10,17,06,56,10.30
2017,10,17,06,57,10.20
2017,10,17,06,58,10.20
2017,10,17,06,59,10.20
2017,10,17,07,00,10.20
2017,10,17,07,01,10.20
2017,10,17,07,02,10.20
2017,10,17,07,03,10.20
2017,10,17,07,04,10.20
2017,10,17,07,05,10.20
2017,10,17,07,06,10.10
2017,10,17,07,07,10.10
2017,10,17,07,08,10.10
2017,10,17,07,09,10.10
2017,10,17,07,10,10.10
2017,10,17,07,11,10.20
2017,10,17,07,12,10.20
2017,10,17,07,13,10.20
2017,10,17,07,14,10.20
2017,10,17,07,15,10.20
2017,10,17,07,16,10.20
2017,10,17,07,17,10.20
2017,10,17,07,18,10.20
2017,10,17,07,19,10.10
2017,10,17,07,20,10.10
2017,10,17,07,21,10.10
2017,10,17,07,22,10.00
2017,10,17,07,23,10.00
2017,10,17,07,24,9.90
2017,10,17,07,25,9.90
2017,10,17,07,26,9.80
2017,10,17,07,27,9.80
2017,10,17,07,28,9.90
2017,10,17,07,29,9.90
2017,10,17,07,30,9.80
2017,10,17,07,31,9.80
2017,10,17,07,32,9.80
2017,10,17,07,33,9.80
2017,10,17,07,34,9.80
2017,10,17,07,35,9.90
2017,10,17,07,36,9.90
2017,10,17,07,37,9.90
2017,10,17,07,38,9.90
2017,10,17,07,39,9.90
2017,10,17,07,40,9.90
2017,10,17,07,41,9.90
2017,10,17,07,42,9.80
2017,10,17,07,43,9.80
2017,10,17,07,44,9.80
2017,10,17,07,45,9.80
2017,10,17,07,46,9.80
2017,10,17,07,47,9.70
2017,10,17,07,48,9.70
2017,10,17,07,49,9.60
2017,10,17,07,50,9.60
2017,10,17,07,51,9.50
2017,10,17,07,52,9.50
2017,10,17,07,53,9.50
2017,10,17,07,54,9.50
2017,10,17,07,55,9.50
2017,10,17,07,56,9.40
2017,10,17,07,57,9.40
2017,10,17,07,58,9.30
2017,10,17,07,59,9.30
2017,10,17,08,00,9.30
2017,10,17,08,01,9.40
2017,10,17,08,02,9.40
2017,10,17,08,03,9.50
2017,10,17,08,04,9.60
2017,10,17,08,05,9.70
2017,10,17,08,06,9.80
2017,10,17,08,07,9.80
2017,10,17,08,08,9.80
2017,10,17,08,09,9.80
2017,10,17,08,10,9.80
2017,10,17,08,11,9.80
2017,10,17,08,12,9.80
2017,10,17,08,13,9.80
2017,10,17,08,14,9.80
2017,10,17,15,02,11.70
2017,10,17,15,03,11.70
2017,10,17,15,04,11.80
2017,10,17,15,05,11.80
2017,10,17,15,06,11.80
2017,10,17,15,07,11.80
2017,10,17,15,08,11.80
2017,10,17,15,09,11.80
2017,10,17,15,10,11.90
2017,10,17,15,11,11.90
2017,10,17,15,12,11.90
2017,10,17,15,13,11.90
2017,10,17,15,14,11.90
2017,10,17,15,15,11.90
2017,10,17,15,16,12.00
2017,10,17,15,17,12.00
2017,10,17,15,18,12.00
2017,10,17,15,19,12.00
2017,10,17,15,20,12.00
2017,10,17,15,21,12.00
2017,10,17,15,22,11.90
2017,10,17,15,23,11.90
2017,10,17,15,24,11.90
2017,10,17,15,25,11.90
2017,10,17,15,26,11.80
2017,10,17,15,27,11.80
2017,10,17,15,28,11.80
2017,10,17,15,29,11.80
2017,10,17,15,30,11.80
2017,10,17,15,31,11.80
2017,10,17,15,32,11.80
2017,10,17,15,33,11.80
2017,10,17,15,34,11.80
2017,10,17,15,35,11.70
2017,10,17,15,36,11.70
2017,10,17,15,37,11.70
2017,10,17,15,38,11.70
2017,10,17,15,39,11.60
2017,10,17,15,40,11.60
2017,10,17,15,41,11.60
2017,10,17,15,42,11.50
2017,10,17,15,43,11.50
2017,10,17,15,44,11.40
2017,10,17,15,45,11.40
2017,10,17,15,46,11.40
2017,10,17,15,47,11.40
2017,10,17,15,48,11.30
2017,10,17,15,49,11.30
2017,10,17,15,50,11.30
2017,10,17,15,51,11.30
2017,10,17,15,52,11.30
2017,10,17,15,53,11.30
2017,10,17,15,54,11.20
2017,10,17,15,55,11.20
2017,10,17,15,56,11.20
2017,10,17,15,57,11.20
2017,10,17,15,58,11.20
2017,10,17,15,59,11.20
2017,10,17,16,00,11.10
2017,10,17,16,01,11.10
2017,10,17,16,02,11.10
2017,10,17,16,03,11.10
2017,10,17,16,04,11.00
2017,10,17,16,05,11.00
2017,10,17,16,06,11.00
2017,10,17,16,07,11.00
2017,10,17,16,08,10.90
2017,10,17,16,09,10.90
2017,10,17,16,10,10.80
2017,10,17,16,11,10.80
2017,10,17,16,12,10.80
2017,10,17,16,13,10.70
2017,10,17,16,14,10.70
2017,10,17,16,15,10.70
2017,10,17,16,16,10.70
2017,10,17,16,17,10.60
2017,10,17,16,18,10.60
2017,10,17,16,19,10.60
2017,10,17,16,20,10.60
2017,10,17,16,21,10.60
2017,10,17,16,22,10.60
2017,10,17,16,23,10.60
2017,10,17,16,24,10.60
2017,10,17,16,25,10.60
2017,10,17,16,26,10.60
2017,10,17,16,27,10.60
2017,10,17,16,28,10.60
2017,10,17,16,29,10.60
2017,10,17,16,30,10.60
2017,10,17,16,31,10.60
2017,10,17,16,32,10.50
2017,10,17,16,33,10.50
2017,10,17,16,34,10.50
2017,10,17,16,35,10.50
2017,10,17,16,36,10.50
2017,10,17,16,37,10.50
2017,10,17,16,38,10.50
2017,10,17,16,39,10.40
2017,10,17,16,40,10.40
2017,10,17,16,41,10.40
2017,10,17,16,42,10.40
2017,10,17,16,43,10.40
2017,10,17,16,44,10.40
2017,10,17,16,45,10.40
2017,10,17,16,46,10.40
2017,10,17,16,47,10.30
2017,10,17,16,48,10.30
2017,10,17,16,49,10.30
2017,10,17,16,50,10.30
2017,10,17,16,51,10.20
2017,10,17,16,52,10.20
2017,10,17,16,53,10.20
2017,10,17,16,54,10.20
2017,10,17,16,55,10.20
2017,10,17,16,56,10.10
2017,10,17,16,57,10.10
2017,10,17,16,58,10.10
2017,10,17,16,59,10.10
2017,10,17,17,00,10.00
2017,10,17,17,01,10.00
2017,10,17,17,02,10.00
2017,10,17,17,03,10.00
2017,10,17,17,04,9.90
2017,10,17,17,05,9.90
2017,10,17,17,06,9.90
2017,10,17,17,07,9.90
2017,10,17,17,08,9.90
2017,10,17,17,09,9.90
2017,10,17,17,10,9.80
2017,10,17,17,11,9.80
2017,10,17,17,12,9.80
2017,10,17,17,13,9.80
2017,10,17,17,14,9.80
2017,10,17,17,15,9.80
2017,10,17,17,16,9.80
2017,10,17,17,17,9.80
2017,10,17,17,18,9.80
2017,10,17,17,19,9.80
2017,10,17,17,20,9.90
2017,10,17,17,21,9.90
2017,10,17,17,22,9.80
2017,10,17,17,23,9.80
2017,10,17,17,24,9.80
2017,10,17,17,25,9.80
2017,10,17,17,26,9.80
2017,10,17,17,27,9.80
2017,10,17,17,28,9.70
2017,10,17,17,29,9.70
2017,10,17,17,30,9.70
2017,10,17,17,31,9.70
2017,10,17,17,32,9.60
2017,10,17,17,33,9.60
2017,10,17,17,34,9.60
2017,10,17,17,35,9.60
2017,10,17,17,36,9.50
2017,10,17,17,37,9.50
2017,10,17,17,38,9.50
2017,10,17,17,39,9.40
2017,10,17,17,40,9.40
2017,10,17,17,41,9.40
2017,10,17,17,42,9.40
2017,10,17,17,43,9.30
2017,10,17,17,44,9.30
2017,10,17,17,45,9.30
2017,10,17,17,46,9.30
2017,10,17,17,47,9.30
2017,10,17,17,48,9.30
2017,10,17,17,49,9.20
2017,10,17,17,50,9.20
2017,10,17,17,51,9.20
2017,10,17,17,52,9.20
2017,10,17,17,53,9.20
2017,10,17,17,54,9.20
2017,10,17,17,55,9.20
2017,10,17,17,56,9.10
2017,10,17,17,57,9.10
2017,10,17,17,58,9.10
2017,10,17,17,59,9.10
2017,10,17,18,00,9.10
2017,10,17,18,01,9.00
2017,10,17,18,02,9.00
2017,10,17,18,03,9.00
2017,10,17,18,04,9.00
2017,10,17,18,05,8.90
2017,10,17,18,06,8.90
2017,10,17,18,07,8.90
2017,10,17,18,08,8.90
2017,10,17,18,09,8.90
2017,10,17,18,10,8.90
2017,10,17,18,11,8.90
2017,10,17,18,12,8.80
2017,10,17,18,13,8.80
2017,10,17,18,14,8.80
2017,10,17,18,15,8.80
2017,10,17,18,16,8.80
2017,10,17,18,17,8.70
2017,10,17,18,18,8.70
2017,10,17,18,19,8.70
2017,10,17,18,20,8.70
2017,10,17,18,21,8.70
2017,10,17,18,22,8.70
2017,10,17,18,23,8.70
2017,10,17,18,24,8.70
2017,10,17,18,25,8.70
2017,10,17,18,26,8.70
2017,10,17,18,27,8.70
2017,10,17,18,28,8.70
2017,10,17,18,29,8.70
2017,10,17,18,30,8.70
2017,10,17,18,31,8.60
2017,10,17,18,32,8.60
2017,10,17,18,33,8.60
2017,10,17,18,34,8.60
2017,10,17,18,35,8.50
2017,10,17,18,36,8.50
2017,10,17,18,37,8.50
2017,10,17,18,38,8.40
2017,10,17,18,39,8.40
2017,10,17,18,40,8.40
2017,10,17,18,41,8.30
2017,10,17,18,42,8.30
2017,10,17,18,43,8.30
2017,10,17,18,44,8.30
2017,10,17,18,45,8.30
2017,10,17,18,46,8.30
2017,10,17,18,47,8.30
2017,10,17,18,48,8.30
2017,10,17,18,49,8.30
2017,10,17,18,50,8.30
2017,10,17,18,51,8.30
2017,10,17,18,52,8.30
2017,10,17,18,53,8.20
2017,10,17,18,54,8.20
2017,10,17,18,55,8.20
2017,10,17,18,56,8.20
2017,10,17,18,57,8.20
2017,10,17,18,58,8.20
2017,10,17,18,59,8.20
2017,10,17,19,00,8.20
2017,10,17,19,01,8.20
2017,10,17,19,02,8.20
2017,10,17,19,03,8.20
2017,10,17,19,04,8.20
2017,10,17,19,05,8.20
2017,10,17,19,06,8.20
2017,10,17,19,07,8.20
2017,10,17,19,08,8.20
2017,10,17,19,09,8.30
2017,10,17,19,10,8.30
2017,10,17,19,11,8.30
2017,10,17,19,12,8.30
2017,10,17,19,13,8.30
2017,10,17,19,14,8.30
2017,10,17,19,15,8.30
2017,10,17,19,16,8.30
2017,10,17,19,17,8.20
2017,10,17,19,18,8.20
2017,10,17,19,19,8.20
2017,10,17,19,20,8.10
2017,10,17,19,21,8.10
2017,10,17,19,22,8.00
2017,10,17,19,23,8.00
2017,10,17,19,24,7.90
2017,10,17,19,25,7.90
2017,10,17,19,26,7.90
2017,10,17,19,27,7.90
2017,10,17,19,28,7.80
2017,10,17,19,29,7.80
2017,10,17,19,30,7.80
2017,10,17,19,31,7.80
2017,10,17,19,32,7.80
2017,10,17,19,33,7.80
2017,10,17,19,34,7.80
2017,10,17,19,35,7.80
2017,10,17,19,36,7.80
2017,10,17,19,37,7.80
2017,10,17,19,38,7.80
2017,10,17,19,39,7.80
2017,10,17,19,40,7.80
2017,10,17,19,41,7.80
2017,10,17,19,42,7.70
2017,10,17,19,43,7.70
2017,10,17,19,44,7.70
2017,10,17,19,45,7.70
2017,10,17,19,46,7.70
2017,10,17,19,47,7.70
2017,10,17,19,48,7.70
2017,10,17,19,49,7.70
2017,10,17,19,50,7.70
2017,10,17,19,51,7.70
2017,10,17,19,52,7.70
2017,10,17,19,53,7.70
2017,10,17,19,54,7.70
2017,10,17,19,55,7.70
2017,10,17,19,56,7.70
2017,10,17,19,57,7.70
2017,10,17,19,58,7.70
2017,10,17,19,59,7.70
2017,10,17,20,00,7.70
2017,10,17,20,01,7.70
2017,10,17,20,02,7.70
2017,10,17,20,03,7.70
2017,10,17,20,04,7.70
2017,10,17,20,05,7.70
2017,10,17,20,06,7.70
2017,10,17,20,07,7.70
2017,10,17,20,08,7.70
2017,10,17,20,09,7.70
2017,10,17,20,10,7.70
2017,10,17,20,11,7.70
2017,10,17,20,12,7.70
2017,10,17,20,13,7.70
2017,10,17,20,14,7.70
2017,10,17,20,15,7.80
2017,10,17,20,16,7.70
2017,10,17,20,17,7.80
2017,10,17,20,18,7.80
2017,10,17,20,19,7.80
2017,10,17,20,20,7.80
2017,10,17,20,21,7.80
2017,10,17,20,22,7.80
2017,10,17,20,23,7.80
2017,10,17,20,24,7.70
2017,10,17,20,25,7.70
2017,10,17,20,26,7.70
2017,10,17,20,27,7.70
2017,10,17,20,28,7.70
2017,10,17,20,29,7.70
2017,10,17,20,30,7.70
2017,10,17,20,31,7.70
2017,10,17,20,32,7.70
2017,10,17,20,33,7.70
2017,10,17,20,34,7.70
2017,10,17,20,35,7.70
2017,10,17,20,36,7.70
2017,10,17,20,37,7.60
2017,10,17,20,38,7.60
2017,10,17,20,39,7.60
2017,10,17,20,40,7.60
2017,10,17,20,41,7.60
2017,10,17,20,42,7.60
2017,10,17,20,43,7.60
2017,10,17,20,44,7.60
2017,10,17,20,45,7.60
2017,10,17,20,46,7.50
2017,10,17,20,47,7.50
2017,10,17,20,48,7.50
2017,10,17,20,49,7.50
2017,10,17,20,50,7.50
2017,10,17,20,51,7.50
2017,10,17,20,52,7.40
2017,10,17,20,53,7.40
2017,10,17,20,54,7.40
2017,10,17,20,55,7.40
2017,10,17,20,56,7.40
2017,10,17,20,57,7.40
2017,10,17,20,58,7.40
2017,10,17,20,59,7.40
2017,10,17,21,00,7.40
2017,10,17,21,01,7.40
2017,10,17,21,02,7.40
2017,10,17,21,03,7.40
2017,10,17,21,04,7.40
2017,10,17,21,05,7.30
2017,10,17,21,06,7.30
2017,10,17,21,07,7.30
2017,10,17,21,08,7.30
2017,10,17,21,09,7.30
2017,10,17,21,10,7.30
2017,10,17,21,11,7.30
2017,10,17,21,12,7.30
2017,10,17,21,13,7.30
2017,10,17,21,14,7.30
2017,10,17,21,15,7.30
2017,10,17,21,16,7.30
2017,10,17,21,17,7.30
2017,10,17,21,18,7.30
2017,10,17,21,19,7.30
2017,10,17,21,20,7.30
2017,10,17,21,21,7.30
2017,10,17,21,22,7.30
2017,10,17,21,23,7.30
2017,10,17,21,24,7.30
2017,10,17,21,25,7.20
2017,10,17,21,26,7.20
2017,10,17,21,27,7.20
2017,10,17,21,28,7.20
2017,10,17,21,29,7.20
2017,10,17,21,30,7.20
2017,10,17,21,31,7.20
2017,10,17,21,32,7.20
2017,10,17,21,33,7.20
2017,10,17,21,34,7.20
2017,10,17,21,35,7.20
2017,10,17,21,36,7.20
2017,10,17,21,37,7.20
2017,10,17,21,38,7.20
2017,10,17,21,39,7.20
2017,10,17,21,40,7.20
2017,10,17,21,41,7.20
2017,10,17,21,42,7.20
2017,10,17,21,43,7.20
2017,10,17,21,44,7.20
2017,10,17,21,45,7.20
2017,10,17,21,46,7.20
2017,10,17,21,47,7.20
2017,10,17,21,48,7.20
2017,10,17,21,49,7.20
2017,10,17,21,50,7.20
2017,10,17,21,51,7.20
2017,10,17,21,52,7.20
2017,10,17,21,53,7.10
2017,10,17,21,54,7.10
2017,10,17,21,55,7.20
2017,10,17,21,56,7.20
2017,10,17,21,57,7.10
2017,10,17,21,58,7.20
2017,10,17,21,59,7.20
2017,10,17,22,00,7.20
2017,10,17,22,01,7.20
2017,10,17,22,02,7.20
2017,10,17,22,03,7.20
2017,10,17,22,04,7.20
2017,10,17,22,05,7.20
2017,10,17,22,06,7.20
2017,10,17,22,07,7.20
2017,10,17,22,08,7.20
2017,10,17,22,09,7.20
2017,10,17,22,10,7.20
2017,10,17,22,11,7.20
2017,10,17,22,12,7.20
2017,10,17,22,13,7.20
2017,10,17,22,14,7.20
2017,10,17,22,15,7.10
2017,10,17,22,16,7.10
2017,10,17,22,17,7.10
2017,10,17,22,18,7.10
2017,10,17,22,19,7.10
2017,10,17,22,20,7.10
2017,10,17,22,21,7.10
2017,10,17,22,22,7.10
2017,10,17,22,23,7.10
2017,10,17,22,24,7.10
2017,10,17,22,25,7.10
2017,10,17,22,26,7.10
2017,10,17,22,27,7.10
2017,10,17,22,28,7.10
2017,10,17,22,29,7.10
2017,10,17,22,30,7.10
2017,10,17,22,31,7.10
2017,10,17,22,32,7.10
2017,10,17,22,33,7.10
2017,10,17,22,34,7.10
2017,10,17,22,35,7.10
2017,10,17,22,36,7.10
2017,10,17,22,37,7.10
2017,10,17,22,38,7.10
2017,10,17,22,39,7.10
2017,10,17,22,40,7.10
2017,10,17,22,41,7.10
2017,10,17,22,42,7.10
2017,10,17,22,43,7.10
2017,10,17,22,44,7.10
2017,10,17,22,45,7.10
2017,10,17,22,46,7.10
2017,10,17,22,47,7.10
2017,10,17,22,48,7.10
2017,10,17,22,49,7.10
2017,10,17,22,50,7.10
2017,10,17,22,51,7.10
2017,10,17,22,52,7.10
2017,10,17,22,53,7.10
2017,10,17,22,54,7.10
2017,10,17,22,55,7.10
2017,10,17,22,56,7.10
2017,10,17,22,57,7.10
2017,10,17,22,58,7.10
2017,10,17,22,59,7.10
2017,10,17,23,00,7.10
2017,10,17,23,01,7.10
2017,10,17,23,02,7.10
2017,10,17,23,03,7.00
2017,10,17,23,04,7.00
2017,10,17,23,05,7.00
2017,10,17,23,06,7.00
2017,10,17,23,07,7.00
2017,10,17,23,08,7.00
2017,10,17,23,09,7.00
2017,10,17,23,10,7.00
2017,10,17,23,11,7.00
2017,10,17,23,12,7.00
2017,10,17,23,13,7.00
2017,10,17,23,14,7.00
2017,10,17,23,15,7.00
2017,10,17,23,16,7.00
2017,10,17,23,17,7.00
2017,10,17,23,18,7.00
2017,10,17,23,19,7.00
2017,10,17,23,20,7.00
2017,10,17,23,21,7.00
2017,10,17,23,22,7.00
2017,10,17,23,23,7.00
2017,10,17,23,24,7.00
2017,10,17,23,25,7.00
2017,10,17,23,26,7.00
2017,10,17,23,27,7.10
2017,10,17,23,28,7.00
2017,10,17,23,29,7.00
2017,10,17,23,30,7.00
2017,10,17,23,31,7.00
2017,10,17,23,32,7.00
2017,10,17,23,33,7.00
2017,10,17,23,34,7.00
2017,10,17,23,35,7.00
2017,10,17,23,36,7.00
2017,10,17,23,37,7.00
2017,10,17,23,38,7.00
2017,10,17,23,39,7.00
2017,10,17,23,40,7.00
2017,10,17,23,41,7.00
2017,10,17,23,42,7.00
2017,10,17,23,43,7.00
2017,10,17,23,44,7.00
2017,10,17,23,45,7.00
2017,10,17,23,46,7.00
2017,10,17,23,47,7.00
2017,10,17,23,48,7.00
2017,10,17,23,49,7.00
2017,10,17,23,50,7.00
2017,10,17,23,51,7.00
2017,10,17,23,52,7.00
2017,10,17,23,53,7.00
2017,10,17,23,54,7.00
2017,10,17,23,55,7.00
2017,10,17,23,56,7.00
2017,10,17,23,57,7.00
2017,10,17,23,58,7.00
2017,10,17,23,59,7.00
